Regional Weather Roundup
Issued by NWS Columbia, SC

Home | Current Version | Previous Version | Text Only | Print | Product List | Glossary On
Versions: 1 2 3 4 5 6 7 8 9 10 11 12 13 14 15 16 17 18 19 20 21 22 23 24 25 26 27 28 29 30 31 32 33 34 35 36 37 38 39 40 41 42 43 44 45 46 47 48 49 50
000
ASUS42 KCAE 180410
RWRCAE
REGIONAL WEATHER ROUNDUP
NATIONAL WEATHER SERVICE COLUMBIA SC
1200 AM EDT THU SEP 18 2014

NOTE: "FAIR" INDICATES FEW OR NO CLOUDS BELOW 12,000 FEET WITH NO
SIGNIFICANT WEATHER AND/OR OBSTRUCTIONS TO VISIBILITY.

NOT ALL STATIONS ARE QUALITY CONTROLLED BY THE NATIONAL
WEATHER SERVICE. USE DATA WITH CAUTION...ESPECIALLY
DEWPOINT OBSERVATIONS.

SCZ001>056-GAZ040-063>065-077-180500-
...UPSTATE SOUTH CAROLINA...

CITY           SKY/WX    TMP DP  RH WIND       PRES   REMARKS
ANDERSON       MOCLDY    67  64  90 CALM      29.98S
LIBERTY        CLOUDY    67  65  95 MISG      29.99R
SPARTANBURG    FAIR      68  68 100 N3        29.98R
CLEMSON        CLOUDY    70  64  81 E5        29.99S
GREENVILLE     CLOUDY    67  63  87 N5        30.00R
GREENWOOD      MOCLDY    67  64  90 CALM      29.99R
GREER          CLOUDY    66  64  93 CALM      29.98R
ROCK HILL      PTCLDY    63  63 100 CALM      29.97S FOG
LAURENS        FAIR      63 N/A N/A CALM      29.98S HAZE


...CENTRAL SOUTH CAROLINA...

CITY           SKY/WX    TMP DP  RH WIND       PRES   REMARKS
COLUMBIA APT   PTCLDY    69  65  86 W3        29.94R
COLUMBIA OWENS MOCLDY    70  66  87 CALM      29.95R
DARLINGTON     PTCLDY    70  66  88 N6        29.93F
FLORENCE       PTCLDY    71  68  90 N3        29.92S
MCENTIRE ANGB  PTCLDY    66  66  99 N5        29.94S
ORANGEBURG     HVY RAIN  70  67  90 CALM      29.94R FOG
SUMTER SHAW    MOCLDY    71  65  84 NW5       29.92S
NEWBERRY       FAIR      66  66 100 CALM      29.99S FOG
AIKEN          MOCLDY    68  68 100 CALM      29.98F
BARNWELL       FAIR      70  70 100 E5        29.94F
MANNING        FAIR      70 N/A N/A N5        29.93S
CAMDEN         FAIR      68  66  94 CALM      29.95R
WINNSBORO      FAIR      66  66 100 N5        29.95F


...EASTERN AND COASTAL SOUTH CAROLINA...

CITY           SKY/WX    TMP DP  RH WIND       PRES   REMARKS
MYRTLE BEACH   MOCLDY    73  70  88 NW3       29.92R
N MYRTLE BCH   MOCLDY    72  67  84 NE6       29.92R
CONWAY         CLOUDY    72  72 100 CALM      29.93R
HARTSVILLE     FAIR      72  66  83 N7        29.93F
FLORENCE       PTCLDY    71  68  90 N3        29.92S
DARLINGTON     PTCLDY    70  66  88 N6        29.93F
CHARLESTON APT PTCLDY    71  68  90 N5        29.92S
MOUNT PLEASANT FAIR      72  72 100 CALM      29.92S FOG
WALTERBORO     CLOUDY    70 N/A N/A CALM      29.94S
BEAUFORT       MOCLDY    72  70  93 SW6       29.93S


...EASTERN GEORGIA...

CITY           SKY/WX    TMP DP  RH WIND       PRES   REMARKS
AUGUSTA BUSH F CLEAR     68  68 100 CALM      29.93S FOG
AUGUSTA DANIEL CLEAR     71  69  93 CALM      29.95S
THOMSON        CLEAR     71  71 100 CALM      29.99S
WASHINGTON     FAIR      72  72 100 CALM      29.97R
CLAXTON        FAIR      72  72 100 CALM      29.92S
SYLVANIA       PTCLDY    71  71  98 CALM      29.93S FOG
STATESBORO     LGT RAIN  71  71 100 E6        29.91F
SAVANNAH       MOCLDY    73  70  88 SE5       29.93F


...SOUTHERN NORTH CAROLINA...

CITY           SKY/WX    TMP DP  RH WIND       PRES   REMARKS
CHARLOTTE      PTCLDY    65  62  90 N5        29.97S
MONROE         CLEAR     66  63  90 N5        29.95S
WADESBORO      PTCLDY    69  67  93 CALM      29.95S FOG
ROCKINGHAM     CLOUDY    69  67  94 CALM      29.94F
RUTHERFORDTON    N/A     61  61  99 CALM      30.00R FOG
ASHEVILLE      CLEAR     61  59  93 CALM      30.03S

$$



USA.gov is the U.S. government's official web portal to all federal, state and local government web resources and services.